This demonstration page uses our WeatherBlox Daily Observations layout. Learn more.

Left ArrowRight Arrow

Hourly Observations for June 23, 2022

Temp ( °F °C ) Dew Point ( °F °C ) Humidity (%) Winds ( mph kmh ) Pressure ( in mb ) Visibility ( mi km ) Precip ( " mm )
12:53 am 00:53 Clear 74 23.3 63 17.2 69 69 NNE 13 20 30.00 1016 10 16 0.00 0.00
1:53 am 01:53 Clear 74 23.3 62 16.7 67 67 NNE 12 19 29.98 1015 10 16 0.00 0.00
2:53 am 02:53 Clear 73 22.8 65 18.3 76 76 NE 8 13 29.97 1015 10 16 0.00 0.00
3:53 am 03:53 Clear 73 22.8 63 17.2 71 71 ENE 9 15 29.97 1015 10 16 0.00 0.00
4:53 am 04:53 Partly Cloudy 71 21.7 62 16.7 73 73 ENE 10 17 29.98 1015 10 16 0.00 0.00
5:53 am 05:53 Sunny 71 21.7 62 16.7 73 73 NNE 7 11 29.98 1015 10 16 0.00 0.00
6:53 am 06:53 Sunny 75 23.9 64 17.8 69 69 NNE 3 6 29.99 1016 10 16 0.00 0.00
7:53 am 07:53 Sunny 77 25 62 16.7 60 60 S 5 7 29.99 1016 10 16 0.00 0.00
8:53 am 08:53 Sunny 79 26.1 65 18.3 62 62 S 7 11 30.00 1016 10 16 0.00 0.00
9:53 am 09:53 Sunny 81 27.2 67 19.4 62 62 SSW 12 19 30.01 1016 10 16 0.00 0.00
10:53 am 10:53 Mostly Sunny 82 27.8 66 18.9 58 58 SW 12 19 30.00 1016 10 16 0.00 0.00
11:53 am 11:53 Sunny 83 28.3 68 20 61 61 SW 10 17 30.00 1016 10 16 0.00 0.00
12:53 pm 12:53 Sunny 84 28.9 68 20 59 59 S 12 19 29.99 1016 10 16 0.00 0.00
1:53 pm 13:53 Partly Cloudy 84 28.9 70 21.1 63 63 SSW 12 19 29.97 1015 10 16 0.00 0.00
2:53 pm 14:53 Mostly Sunny 83 28.3 68 20 61 61 SW 13 20 29.96 1015 10 16 0.00 0.00
3:53 pm 15:53 Mostly Cloudy 82 27.8 69 20.6 65 65 SW 8 13 29.95 1014 10 16 0.00 0.00
4:53 pm 16:53 Mostly Cloudy 81 27.2 70 21.1 69 69 SSW 7 11 29.95 1014 10 16 0.00 0.00
5:53 pm 17:53 Mostly Cloudy 80 26.7 69 20.6 69 69 ESE 12 19 29.95 1014 10 16 0.00 0.00
6:53 pm 18:53 Mostly Cloudy 79 26.1 69 20.6 72 72 S 8 13 29.96 1015 10 16 0.00 0.00
7:53 pm 19:53 Mostly Cloudy 79 26.1 68 20 69 69 ESE 5 7 29.98 1015 10 16 0.00 0.00
8:53 pm 20:53 Cloudy 77 25 68 20 74 74 SSE 9 15 29.99 1016 10 16 0.00 0.00
9:53 pm 21:53 Cloudy 76 24.4 68 20 77 77 SE 10 17 30.00 1016 10 16 0.00 0.00
10:53 pm 22:53 Clear 76 24.4 67 19.4 74 74 SE 5 7 30.00 1016 10 16 0.00 0.00
11:53 pm 23:53 Clear 75 23.9 64 17.8 69 69 SSE 6 9 30.00 1016 10 16 0.00 0.00

Powered by AerisWeather